[[{"header":{"parameterUnit":"m.s-1","parameterCategory":1,"la1":30.2991,"la2":30.254,"lo1":-89.0895,"lo2":-89.0444,"dy":0.0017,"dx":0.0017,"nx":28,"ny":28,"refTime":"2023-09-14T21:00:00:Z","depth":0,"parameterNumber":2,"parameterNumberName":"U-component_of_WINDS"},"data":[0,0,0,0,0,0,0,0,0,0,0,0,0,0,0,0,0,0,0,0,0,0,0,0,0,0,0,0,0,0,0,0,0,0,0,0,0,0,0,0,0,0,0,0,0,0,0,0,0,0,0,0,0,0,0,0,0,0,-0.5026,-0.5025,0,-0.4915,-0.4914,-0.4913,-0.4835,-0.4834,-0.4834,-0.4833,-0.4717,-0.4714,-0.4712,0,0,0,0,0,0,0,0,0,0,0,0,0,-0.5167,-0.5165,-0.5026,-0.5025,-0.5024,-0.4916,-0.4914,-0.4913,-0.4835,-0.4834,-0.4834,-0.4833,-0.4717,-0.4715,-0.4711,0,0,0,0,0,0,0,0,0,0,0,0,0,-0.5086,-0.5164,-0.5027,-0.4972,-0.4966,-0.4916,-0.4914,-0.4912,-0.4835,-0.4834,-0.4833,-0.4833,-0.4718,-0.4715,-0.4711,-0.4706,0,0,-0.4699,-0.4698,0,0,0,0,0,0,0,0,-0.5091,-0.5081,-0.4981,-0.4976,-0.4969,-0.4888,-0.4921,-0.4843,-0.4836,-0.4885,-0.4833,-0.4832,-0.4774,-0.4766,-0.4747,-0.47,-0.4695,-0.4699,-0.4697,-0.4695,-0.4694,0,0,0,0,0,0,0,-0.5096,-0.5085,-0.4982,-0.498,-0.4972,-0.4952,-0.4939,-0.4906,-0.4836,-0.488,-0.4875,-0.4863,-0.4771,-0.4751,-0.4744,-0.4693,-0.4699,-0.4696,-0.4693,-0.4692,-0.4636,-0.4636,0,0,0,0,0,0,-0.5111,-0.509,-0.4986,-0.4979,-0.5029,-0.495,-0.4936,-0.4915,-0.4836,-0.4823,-0.4864,-0.4859,-0.4758,-0.4748,-0.4739,-0.4727,-0.4695,-0.4692,-0.4689,-0.4635,-0.4636,-0.4637,0,0,0,0,0,0,-0.5114,-0.5102,-0.499,-0.5033,-0.5017,-0.4948,-0.4925,-0.4913,-0.4893,-0.4823,-0.481,-0.4856,-0.4757,-0.4745,-0.4715,-0.4722,-0.469,-0.4686,-0.4634,-0.4635,-0.4636,-0.4704,0,0,0,0,0,0,-0.5119,-0.5104,-0.5102,-0.5034,-0.5015,-0.4969,-0.4926,-0.4912,-0.4887,-0.4881,-0.4813,-0.4801,-0.4755,-0.4721,-0.4711,-0.4716,-0.4683,-0.4633,-0.4634,-0.4636,-0.4701,-0.4708,-0.4713,0,0,0,0,0,-0.5124,-0.5125,-0.5103,-0.509,-0.5012,-0.497,-0.4959,-0.4907,-0.4888,-0.4885,-0.484,-0.4803,-0.4723,-0.4718,-0.4706,-0.4711,-0.4632,-0.4634,-0.4636,-0.4698,-0.4706,-0.4713,0,0,0,0,0,0,-0.5196,-0.5115,-0.5089,-0.5069,-0.5027,-0.4957,-0.4951,-0.4917,-0.4879,-0.4874,-0.481,-0.4796,-0.4772,-0.4738,-0.4735,-0.4701,-0.4673,-0.4672,-0.4725,-0.4732,-0.4738,-0.4746,-0.468,0,0,0,0,0,-0.5209,-0.5183,-0.5114,-0.5102,-0.5082,-0.5021,-0.5,-0.4964,-0.4917,-0.4899,-0.4852,-0.4807,-0.4771,-0.4749,-0.4713,-0.4695,-0.4679,-0.4693,-0.4699,-0.4704,-0.4705,-0.4692,-0.4697,-0.4642,-0.4642,-0.4642,0,0,-0.5237,-0.519,-0.5177,-0.5115,-0.5078,-0.5052,-0.5006,-0.498,-0.4959,-0.4894,-0.4864,-0.4827,-0.4773,-0.4749,-0.4736,-0.472,-0.4716,-0.4706,-0.4711,-0.4708,-0.4694,-0.47,-0.4704,-0.4644,-0.4643,-0.4643,0,0,-0.5274,-0.5236,-0.5222,-0.5186,-0.5131,-0.509,-0.5086,-0.5021,-0.4995,-0.4963,-0.4914,-0.4887,-0.4828,-0.4791,-0.4765,-0.4787,-0.4751,-0.4776,-0.4808,-0.4797,-0.4801,-0.4805,-0.4813,-0.4816,-0.4777,-0.4777,-0.4777,0,-0.5315,-0.5273,-0.5218,-0.5195,-0.5169,-0.511,-0.5095,-0.5062,-0.4998,-0.4981,-0.4964,-0.4888,-0.4847,-0.4814,-0.4819,-0.48,-0.4793,-0.4784,-0.4805,-0.4808,-0.4811,-0.4817,-0.482,-0.478,-0.478,-0.478,-0.4779,0,-0.5326,-0.5298,-0.5293,-0.5234,-0.5207,-0.5188,-0.5129,-0.5108,-0.5074,-0.5034,-0.5002,-0.4951,-0.4903,-0.4892,-0.4858,-0.4853,-0.4845,-0.4818,-0.4788,-0.482,-0.4825,-0.4828,-0.4785,-0.4784,-0.4783,-0.4782,0,0,-0.5406,-0.5316,-0.5315,-0.5287,-0.5222,-0.5198,-0.5176,-0.513,-0.5113,-0.507,-0.5049,-0.5,-0.4974,-0.4944,-0.4905,-0.4895,-0.4915,-0.4868,-0.4866,-0.4879,-0.4907,-0.4928,-0.4932,-0.4891,-0.4891,-0.4891,-0.4911,0,-0.5433,-0.5391,-0.534,-0.5315,-0.5288,-0.5231,-0.5211,-0.5168,-0.513,-0.5101,-0.5058,-0.5024,-0.4992,-0.4974,-0.4962,-0.4916,-0.492,-0.4913,-0.487,-0.4869,-0.4886,-0.4935,-0.4957,-0.4979,-0.4913,-0.4913,-0.4913,0,-0.5458,-0.542,-0.5392,-0.5329,-0.5315,-0.5299,-0.5252,-0.5225,-0.5174,-0.5147,-0.5114,-0.5072,-0.5044,-0.5018,-0.4978,-0.4974,-0.4953,-0.4928,-0.4927,-0.4921,-0.4894,-0.493,-0.4984,-0.4988,-0.4916,-0.4916,-0.4916,0,-0.552,-0.546,-0.5436,-0.5413,-0.5339,-0.5328,-0.5297,-0.5245,-0.5221,-0.5179,-0.5163,-0.5118,-0.5094,-0.506,-0.5007,-0.4993,-0.4973,-0.4942,-0.4949,-0.495,-0.4947,-0.4948,-0.4999,-0.4934,-0.4934,-0.4934,-0.4934,0,-0.5555,-0.554,-0.5462,-0.5447,-0.5429,-0.537,-0.5353,-0.5316,-0.527,-0.5246,-0.5194,-0.5172,-0.5103,-0.5073,-0.5031,-0.5004,-0.4993,-0.497,-0.4959,-0.4975,-0.4978,-0.496,-0.4958,-0.4934,-0.4934,-0.4934,-0.4934,0,-0.562,-0.5567,-0.5537,-0.5469,-0.5452,-0.5441,-0.5382,-0.5364,-0.5323,-0.5293,-0.5283,-0.5218,-0.5179,-0.5123,-0.5067,-0.5039,-0.5018,-0.5,-0.5036,-0.5029,-0.5039,-0.5039,-0.5081,-0.5083,-0.5017,-0.5018,-0.5018,0,-0.5647,-0.5634,-0.5565,-0.5546,-0.5516,-0.5485,-0.546,-0.5401,-0.5377,-0.5318,-0.5308,-0.5265,-0.5229,-0.517,-0.5116,-0.5073,-0.5054,-0.5071,-0.5047,-0.5063,-0.5054,-0.5056,-0.5054,-0.5077,-0.5078,-0.5079,-0.508,0,-0.5699,-0.5673,-0.564,-0.5597,-0.5568,-0.5531,-0.5492,-0.5478,-0.5411,-0.5386,-0.5346,-0.5318,-0.5261,-0.5219,-0.5169,-0.5134,-0.5096,-0.5088,-0.5087,-0.5103,-0.5125,-0.5113,-0.5052,-0.5087,-0.5087,-0.5086,-0.5086,-0.5085,-0.5745,-0.5731,-0.5681,-0.5644,-0.5609,-0.5573,-0.5553,-0.551,-0.5476,-0.5426,-0.5393,-0.5355,-0.5304,-0.5232,-0.52,-0.5168,-0.5152,-0.5151,-0.5151,-0.5152,-0.5157,-0.513,-0.5159,-0.5159,-0.5158,-0.5158,-0.5158,0,-0.5795,-0.5759,-0.5727,-0.5673,-0.5645,-0.5612,-0.5566,-0.5544,-0.5512,-0.5467,-0.5432,-0.5387,-0.5346,-0.529,-0.5244,-0.523,-0.5211,-0.522,-0.5221,-0.5213,-0.5174,-0.518,-0.5236,-0.5236,-0.5236,-0.5236,-0.5236,-0.5236,-0.5818,-0.5792,-0.5761,-0.5716,-0.568,-0.5644,-0.562,-0.5587,-0.5551,-0.5503,-0.5469,-0.5433,-0.5383,-0.5334,-0.5295,-0.5279,-0.5264,-0.5279,-0.5258,-0.5223,-0.5216,-0.5209,-0.5214,-0.5277,-0.5277,-0.5299,-0.5299,-0.53]},{"header":{"parameterUnit":"m.s-1","parameterCategory":1,"la1":30.2991,"la2":30.254,"lo1":-89.0895,"lo2":-89.0444,"dy":0.0017,"dx":0.0017,"nx":28,"ny":28,"refTime":"2023-09-14T21:00:00:Z","depth":0,"parameterNumber":3,"parameterNumberName":"V-component_of_WINDS"},"data":[0,0,0,0,0,0,0,0,0,0,0,0,0,0,0,0,0,0,0,0,0,0,0,0,0,0,0,0,0,0,0,0,0,0,0,0,0,0,0,0,0,0,0,0,0,0,0,0,0,0,0,0,0,0,0,0,0,0,0.7455,0.7454,0,0.7371,0.737,0.7369,0.7326,0.7326,0.7326,0.7326,0.7236,0.7234,0.7231,0,0,0,0,0,0,0,0,0,0,0,0,0,0.7574,0.7572,0.7455,0.7454,0.7453,0.7371,0.737,0.7369,0.7326,0.7326,0.7326,0.7326,0.7237,0.7234,0.7231,0,0,0,0,0,0,0,0,0,0,0,0,0,0.7509,0.7571,0.7455,0.7422,0.7418,0.7372,0.737,0.7369,0.7326,0.7326,0.7326,0.7326,0.7238,0.7234,0.7231,0.7211,0,0,0.722,0.7219,0,0,0,0,0,0,0,0,0.7513,0.7505,0.7428,0.7424,0.742,0.7359,0.7379,0.7316,0.7326,0.7361,0.7326,0.7326,0.7277,0.727,0.7254,0.7206,0.7203,0.722,0.7218,0.7216,0.7215,0,0,0,0,0,0,0,0.7518,0.7508,0.7422,0.7427,0.7422,0.741,0.74,0.7367,0.732,0.7358,0.7354,0.7345,0.7274,0.7258,0.7252,0.7201,0.722,0.7217,0.7215,0.7213,0.7131,0.7131,0,0,0,0,0,0,0.7528,0.7513,0.7425,0.7419,0.7467,0.7407,0.7397,0.7378,0.732,0.7311,0.7345,0.7343,0.7264,0.7256,0.7249,0.722,0.7216,0.7213,0.7211,0.7131,0.7131,0.7131,0,0,0,0,0,0,0.7531,0.7521,0.7428,0.7465,0.7452,0.7406,0.7385,0.7377,0.736,0.7311,0.7302,0.7337,0.7263,0.7254,0.722,0.7216,0.7211,0.7208,0.7131,0.7131,0.7131,0.7164,0,0,0,0,0,0,0.7534,0.7522,0.7515,0.7465,0.7451,0.7402,0.7385,0.7375,0.7355,0.7351,0.7301,0.7292,0.7263,0.7226,0.7217,0.7211,0.7205,0.7131,0.7131,0.7131,0.7163,0.7165,0.7166,0,0,0,0,0,0.7539,0.7527,0.7515,0.7504,0.7441,0.7402,0.7394,0.7361,0.7355,0.7346,0.7314,0.7294,0.7218,0.7223,0.7212,0.7206,0.7131,0.7131,0.7131,0.7162,0.7164,0.7166,0,0,0,0,0,0,0.7576,0.752,0.7506,0.7478,0.7445,0.7395,0.7384,0.7364,0.7332,0.733,0.729,0.7279,0.7249,0.7224,0.723,0.7182,0.7173,0.717,0.72,0.7202,0.7203,0.721,0.7202,0,0,0,0,0,0.7581,0.7556,0.7508,0.7487,0.7472,0.7431,0.7413,0.739,0.7354,0.734,0.7306,0.7271,0.7239,0.7219,0.7187,0.7159,0.7146,0.7149,0.7151,0.7153,0.7151,0.7133,0.7133,0.713,0.713,0.713,0,0,0.7591,0.7557,0.7544,0.7494,0.7466,0.744,0.7419,0.7392,0.7372,0.7336,0.7302,0.7276,0.7234,0.7203,0.7188,0.7181,0.7149,0.7153,0.7154,0.7151,0.7133,0.7133,0.7133,0.713,0.713,0.713,0,0,0.7596,0.7568,0.7548,0.7521,0.7479,0.7452,0.7447,0.7399,0.7381,0.7347,0.7319,0.7293,0.724,0.7211,0.7189,0.7182,0.7162,0.7173,0.7182,0.7165,0.7165,0.7165,0.7162,0.7161,0.7171,0.7171,0.7171,0,0.7613,0.7573,0.7539,0.7514,0.7492,0.7459,0.7438,0.7412,0.7362,0.7347,0.7341,0.7273,0.7243,0.7204,0.7202,0.7186,0.7178,0.7178,0.7168,0.7168,0.7167,0.7163,0.7162,0.7173,0.7173,0.7173,0.7173,0,0.7596,0.7568,0.7557,0.751,0.7487,0.7464,0.7425,0.7406,0.7385,0.7358,0.7323,0.7285,0.7245,0.7234,0.7213,0.7192,0.7189,0.7176,0.7165,0.717,0.7165,0.7164,0.7175,0.7175,0.7174,0.7174,0,0,0.7621,0.7556,0.7553,0.7531,0.7482,0.746,0.7434,0.7396,0.7379,0.7345,0.7322,0.7277,0.7265,0.724,0.7216,0.7201,0.7196,0.7189,0.7188,0.7191,0.7169,0.7179,0.7178,0.7183,0.7183,0.7182,0.7172,0,0.7618,0.7572,0.7541,0.7506,0.7479,0.7448,0.7425,0.7392,0.7366,0.7339,0.7309,0.7278,0.7264,0.7249,0.7233,0.7201,0.7191,0.7201,0.7159,0.7158,0.717,0.7176,0.7186,0.7178,0.7171,0.717,0.717,0,0.7608,0.7576,0.754,0.7494,0.7481,0.7462,0.7423,0.7398,0.736,0.7341,0.7314,0.7289,0.7259,0.7252,0.7209,0.7216,0.7197,0.7179,0.7177,0.7172,0.7164,0.7169,0.7175,0.7174,0.7167,0.7167,0.7168,0,0.7629,0.7577,0.7548,0.753,0.7476,0.7463,0.744,0.7401,0.738,0.7346,0.7331,0.7294,0.7273,0.7244,0.721,0.7207,0.717,0.716,0.7153,0.7154,0.7146,0.7147,0.7148,0.7135,0.7135,0.7135,0.7135,0,0.7628,0.7607,0.7557,0.7539,0.7513,0.7477,0.7452,0.7426,0.7392,0.7367,0.7337,0.7314,0.727,0.7242,0.7214,0.7182,0.7173,0.7157,0.7149,0.7159,0.7161,0.7145,0.7145,0.7135,0.7135,0.7135,0.7135,0,0.7647,0.7613,0.7579,0.7531,0.7518,0.7501,0.7459,0.744,0.7412,0.7381,0.7372,0.7328,0.7292,0.7255,0.7207,0.7188,0.7157,0.7148,0.7171,0.7166,0.7161,0.7162,0.7152,0.7149,0.7139,0.7139,0.7139,0,0.7649,0.7632,0.7582,0.7563,0.7541,0.7512,0.749,0.7454,0.7432,0.7387,0.7372,0.7335,0.7303,0.7248,0.7211,0.7174,0.7162,0.7161,0.7156,0.7166,0.7161,0.7162,0.716,0.7163,0.7163,0.7163,0.7164,0,0.7655,0.7639,0.7609,0.7573,0.7548,0.7518,0.7486,0.7473,0.7429,0.7406,0.737,0.7346,0.7297,0.726,0.7218,0.7192,0.717,0.7166,0.7162,0.7171,0.7185,0.7176,0.7174,0.7166,0.7166,0.7165,0.7165,0.7165,0.7664,0.7647,0.7609,0.7577,0.7549,0.752,0.75,0.747,0.744,0.7398,0.7377,0.7341,0.7302,0.7244,0.7219,0.7189,0.7182,0.7177,0.7176,0.7175,0.7177,0.719,0.7181,0.7181,0.7181,0.7181,0.7181,0,0.7667,0.7642,0.7612,0.7569,0.7544,0.7527,0.7491,0.747,0.7439,0.7405,0.7374,0.7333,0.7296,0.7257,0.7218,0.7201,0.719,0.7192,0.7193,0.7187,0.7185,0.7192,0.7202,0.7202,0.7202,0.7202,0.7202,0.7202,0.7666,0.7636,0.7615,0.7571,0.7545,0.751,0.7491,0.7463,0.7436,0.7391,0.7362,0.7336,0.7299,0.7257,0.7223,0.7212,0.7199,0.7204,0.719,0.7189,0.7187,0.7185,0.7192,0.7201,0.7201,0.7193,0.7193,0.7193]}]]